Location: Newark
(45.9167°N, 5.5000°E)
Time: 19:30:40
(UTC+00:00)

ISS - Pass Details

Date: 23 January 2020
Orbit: 415 x 423 km, 51.6° (Epoch: 28 February)

Event Time Altitude Azimuth Distance (km) Brightness Sun altitude
Rises 18:04:23 0° 238° (WSW) 2,372 1.4 -16.3°
Reaches altitude 10° 18:06:29 10° 237° (WSW) 1,509 0.1 -16.7°
Maximum altitude 18:09:52 80° 151° (SSE) 434 -3.8 -17.2°
Enters shadow 18:10:37 51° 73° (ENE) 539 -3.7 -17.4°
